Regional Weather Roundup
Issued by NWS State College, PA

Home | Current Version | Previous Version | Text Only | Print | Product List | Glossary Off
Versions: 1 2 3 4 5 6 7 8 9 10 11 12 13 14 15 16 17 18 19 20 21 22 23 24 25 26 27 28 29 30 31 32 33 34 35 36 37 38 39 40 41 42 43 44 45 46 47 48 49 50

000
ASUS41 KCTP 281603
RWRCTP

REGIONAL WEATHER ROUNDUP
NATIONAL WEATHER SERVICE STATE COLLEGE PA
1200 PM EDT SUN AUG 28 2016

Note: "fair" indicates few or no clouds below 12,000 feet with no
significant weather and/or obstructions to visibility.

* = STATION THAT DOES NOT REPORT PRECIPITATION /E.G. RAIN...SNOW...ETC/
    THUNDER OR FOG.

PAZ002>004-007>009-013>016-020>023-029>032-281700-
WESTERN PENNSYLVANIA

CITY           SKY/WX    TMP DP  RH WIND       PRES   REMARKS
ERIE           SUNNY     82  72  71 W7        30.20S
MEADVILLE      MOSUNNY   80  66  62 VRB5      30.24S
FRANKLIN*        N/A     82  66  57 SW5       30.25S
NEW CASTLE     FAIR      84  66  54 CALM      30.24S
BEAVER COUNTY  NOT AVBL
BUTLER*        NOT AVBL
PITTSBURGH INT CLOUDY    84  69  60 W5        30.23F
PITTSBURGH     PTSUNNY   85  70  60 CALM      30.23S
INDIANA*       SUNNY     82  72  69 SW6       30.27S
LATROBE        PTSUNNY   84  73  70 W12       30.25S
WASHINGTON CO* CLOUDY    84  72  65 CALM      30.25S
$$

PAZ004>006-010>012-017>019-024>028-033>037-041-042-045-046-049>053-281700-
CENTRAL PENNSYLVANIA

CITY           SKY/WX    TMP DP  RH WIND       PRES   REMARKS
BRADFORD       PTSUNNY   80  69  69 VRB5      30.27S
DUBOIS         SUNNY     83  69  62 CALM      30.26F
CLEARFIELD     MOSUNNY   84  69  60 W8        30.26F
JOHNSTOWN      SUNNY     81  69  67 VRB5      30.30F
ALTOONA        SUNNY     83  68  60 VRB6      30.28F
STATE COLLEGE  SUNNY     81  68  65 S9        30.26F
WILLIAMSPORT   MOSUNNY   82  66  58 CALM      30.22F
SELINSGROVE    SUNNY     85  67  54 SE7       30.25F
FT INDIANTOWN  SUNNY     82  64  55 S6        30.26F
CAPITAL CITY   SUNNY     84  68  58 E6        30.25F
HARRISBURG     MOSUNNY   84  70  62 SE7       30.25F
YORK           SUNNY     84  63  49 MISG      30.25F
$$

PAZ038>040-043-044-047-048-054-055-060>062-067>071-281700-
EASTERN PENNSYLVANIA

CITY           SKY/WX    TMP DP  RH WIND       PRES   REMARKS
SCRANTON       SUNNY     82  61  48 SW6       30.26F
MOUNT POCONO   SUNNY     77  55  46 SW12      30.33S
ALLENTOWN      SUNNY     84  59  42 S5        30.26F
QUAKERTOWN*    SUNNY     84  59  42 CALM      30.28F
READING        SUNNY     85  62  46 S6        30.24F
LANCASTER      SUNNY     84  60  44 S8        30.26F
COATESVILLE    SUNNY     82  61  47 VRB7      30.29F
POTTSTOWN      SUNNY     83  62  49 VRB6      30.28F
BLUE BELL      SUNNY     82  64  54 SW3       30.26S
DOYLESTOWN     SUNNY     84  65  52 CALM      30.26F
WILLOW GROVE   NOT AVBL
NORTH PHILA    SUNNY     85  65  51 SE5       30.27F
PHILADELPHIA   MOSUNNY   85  63  47 VRB3      30.25F
$$




USA.gov is the U.S. government's official web portal to all federal, state and local government web resources and services.